Home > Weather > Brumunddal > Past weeks

Flag for Norway Past Weather in Brumunddal, Norway — Yesterday and Last 2 Weeks

Now
58 °F

Cool.


Feels Like: 59 °F
Forecast: 53 / 73 °F
Wind: 3 mph from Southeast

Location: Lillehammer-Saetherengen

Current Time: Aug 24, 2016 at 10:47:31 AM

Latest Report: Aug 24, 2016 at 10:00 AM


Visibility: N/A

Pressure: 30.21 "Hg

Humidity: 87%

Dew Point: 54 °F

Location of BrumunddalLocation

Past Weather in Brumunddal — Graph

°F

Brumunddal Temperature Yesterday

Maximum temperature yesterday: 74 °F (at 4:00 PM)
Minimum temperature yesterday: 53 °F (at 7:00 AM)
Average temperature yesterday: 62 °F

High & Low Weather Summary for the Past Weeks

 TemperatureHumidityPressure
High77 °F (Aug 17, 5:00 PM)96% (Aug 20, 6:00 AM)30.22 "Hg (Aug 20, 6:00 AM)
Low39 °F (Aug 11, 6:00 AM)21% (Aug 17, 5:00 PM)29.35 "Hg (Aug 9, 9:00 AM)
Average57 °F70%29.92 "Hg
* Reported Aug 9 9:00 AM — Aug 24 9:00 AM, Brumunddal, Weather by CustomWeather, © 2016

Note: Actual official high and low records may vary slightly from our data, if they occured in-between our weather recording intervals... More about our weather records

Advertising

Brumunddal Weather History for the Previous 24 Hours

Scroll right to see more
 ConditionsComfort  
Time TempWeatherWind HumidityBarometerVisibility
9:00 AM
Wed, Aug 24
58 °FCool.2 mph88%30.22 "HgN/A
8:00 AM56 °FCool.1 mph87%30.22 "HgN/A
7:00 AM56 °FCool.1 mph86%30.22 "HgN/A
6:00 AM53 °FCool.1 mph90%30.22 "HgN/A
5:00 AM54 °FCool.1 mph90%30.22 "HgN/A
4:00 AM55 °FCool.No wind87%30.22 "HgN/A
3:00 AM56 °FCool.1 mph85%30.22 "HgN/A
2:00 AM55 °FCool.No wind89%30.22 "HgN/A
1:00 AM55 °FCool.1 mph86%30.22 "HgN/A
12:00 AM57 °FCool.No wind80%30.21 "HgN/A
11:00 PM
Tue, Aug 23
60 °FCool.1 mph72%30.19 "HgN/A
10:00 PM60 °FCool.No wind72%30.19 "HgN/A
9:00 PM63 °FMild.1 mph66%30.17 "HgN/A
8:00 PM66 °FMild.1 mph59%30.16 "HgN/A
7:00 PM68 °FMild.1 mph58%30.15 "HgN/A
6:00 PM71 °FMild.2 mph52%30.14 "HgN/A
5:00 PM74 °FMild.2 mph38%30.14 "HgN/A
4:00 PM74 °FMild.1 mph39%30.14 "HgN/A
3:00 PM74 °FMild.1 mph33%30.14 "HgN/A
2:00 PM72 °FMild.1 mph39%30.14 "HgN/A
1:00 PM70 °FMild.1 mph49%30.14 "HgN/A
12:00 PM67 °FMild.2 mph59%30.14 "HgN/A
11:00 AM64 °FMild.2 mph66%30.15 "HgN/A
10:00 AM61 °FCool.1 mph75%30.16 "HgN/A
Weather by CustomWeather, © 2016

See weather overviewHow to use our weather pages